Time,TemperatureF,DewpointF,PressureIn,WindDirection,WindDirectionDegrees,WindSpeedMPH,WindSpeedGustMPH,Humidity,HourlyPrecipIn,Conditions,Clouds,dailyrainin,SoftwareType,DateUTC
2013-05-20 00:01:00,67.6,68.0,29.94,NE,52,0.0,-999.0,100,-99.99,,,0.00,weatherlink.com 1.10,2013-05-19 21:01:00,
2013-05-20 00:16:00,66.9,67.0,29.94,NE,52,3.0,-999.0,100,-99.99,,,0.00,weatherlink.com 1.10,2013-05-19 21:16:00,
2013-05-20 00:31:00,66.8,67.0,29.94,NE,52,2.0,-999.0,100,-99.99,,,0.00,weatherlink.com 1.10,2013-05-19 21:31:00,
2013-05-20 00:46:00,67.3,67.0,29.94,NE,52,1.0,-999.0,100,-99.99,,,0.00,weatherlink.com 1.10,2013-05-19 21:46:00,
2013-05-20 01:01:00,66.6,67.0,29.94,NE,52,0.0,-999.0,100,-99.99,,,0.00,weatherlink.com 1.10,2013-05-19 22:01:00,
2013-05-20 01:16:00,66.3,66.0,29.94,NE,44,0.0,-999.0,100,-99.99,,,0.00,weatherlink.com 1.10,2013-05-19 22:16:00,
2013-05-20 01:31:00,66.1,66.0,29.94,NE,44,0.0,-999.0,100,-99.99,,,0.00,weatherlink.com 1.10,2013-05-19 22:31:00,
2013-05-20 01:46:00,66.0,66.0,29.94,NE,44,0.0,-999.0,100,-99.99,,,0.00,weatherlink.com 1.10,2013-05-19 22:46:00,
2013-05-20 02:01:00,66.3,66.0,29.93,NE,44,0.0,-999.0,100,-99.99,,,0.00,weatherlink.com 1.10,2013-05-19 23:01:00,
2013-05-20 02:16:00,66.4,66.0,29.93,NE,44,0.0,-999.0,100,-99.99,,,0.00,weatherlink.com 1.10,2013-05-19 23:16:00,
2013-05-20 02:31:00,66.3,66.0,29.93,NE,44,0.0,-999.0,100,-99.99,,,0.00,weatherlink.com 1.10,2013-05-19 23:31:00,
2013-05-20 02:46:00,65.8,66.0,29.94,NE,44,0.0,-999.0,100,-99.99,,,0.00,weatherlink.com 1.10,2013-05-19 23:46:00,
2013-05-20 03:01:00,65.2,65.0,29.94,NE,44,0.0,-999.0,100,-99.99,,,0.00,weatherlink.com 1.10,2013-05-20 00:01:00,
2013-05-20 03:16:00,64.7,65.0,29.93,NE,44,0.0,-999.0,100,-99.99,,,0.00,weatherlink.com 1.10,2013-05-20 00:16:00,
2013-05-20 03:31:00,64.5,65.0,29.94,NE,44,0.0,-999.0,100,-99.99,,,0.00,weatherlink.com 1.10,2013-05-20 00:31:00,
2013-05-20 03:46:00,64.5,65.0,29.94,NE,44,0.0,-999.0,100,-99.99,,,0.00,weatherlink.com 1.10,2013-05-20 00:46:00,
2013-05-20 04:01:00,64.8,65.0,29.94,NE,44,0.0,-999.0,100,-99.99,,,0.00,weatherlink.com 1.10,2013-05-20 01:01:00,
2013-05-20 04:16:00,64.5,65.0,29.94,NE,44,0.0,-999.0,100,-99.99,,,0.00,weatherlink.com 1.10,2013-05-20 01:16:00,
2013-05-20 04:31:00,64.2,64.0,29.93,NE,44,0.0,-999.0,100,-99.99,,,0.00,weatherlink.com 1.10,2013-05-20 01:31:00,
2013-05-20 04:47:00,63.4,63.0,29.93,NE,44,0.0,-999.0,100,-99.99,,,0.00,weatherlink.com 1.10,2013-05-20 01:47:00,
2013-05-20 05:02:00,63.7,64.0,29.93,NE,44,0.0,-999.0,100,-99.99,,,0.00,weatherlink.com 1.10,2013-05-20 02:02:00,
2013-05-20 05:17:00,64.7,65.0,29.93,ENE,68,0.0,-999.0,100,-99.99,,,0.00,weatherlink.com 1.10,2013-05-20 02:17:00,
2013-05-20 05:32:00,64.5,65.0,29.93,ENE,68,0.0,-999.0,100,-99.99,,,0.00,weatherlink.com 1.10,2013-05-20 02:32:00,
2013-05-20 05:47:00,64.0,64.0,29.94,ENE,68,0.0,-999.0,100,-99.99,,,0.00,weatherlink.com 1.10,2013-05-20 02:47:00,
2013-05-20 06:02:00,64.3,64.0,29.94,ENE,68,0.0,-999.0,100,-99.99,,,0.00,weatherlink.com 1.10,2013-05-20 03:02:00,
2013-05-20 06:17:00,64.3,64.0,29.94,ENE,68,0.0,-999.0,100,-99.99,,,0.00,weatherlink.com 1.10,2013-05-20 03:17:00,
2013-05-20 06:32:00,64.2,64.0,29.95,ENE,68,0.0,-999.0,100,-99.99,,,0.00,weatherlink.com 1.10,2013-05-20 03:32:00,
2013-05-20 06:47:00,64.0,64.0,29.95,ENE,68,0.0,-999.0,100,-99.99,,,0.00,weatherlink.com 1.10,2013-05-20 03:47:00,
2013-05-20 07:02:00,66.3,66.0,29.96,ENE,68,0.0,-999.0,100,-99.99,,,0.00,weatherlink.com 1.10,2013-05-20 04:02:00,
2013-05-20 07:17:00,68.4,68.0,29.95,ENE,68,0.0,-999.0,100,-99.99,,,0.00,weatherlink.com 1.10,2013-05-20 04:17:00,
2013-05-20 07:32:00,67.9,68.0,29.96,NE,45,2.0,-999.0,100,-99.99,,,0.00,weatherlink.com 1.10,2013-05-20 04:32:00,
2013-05-20 07:47:00,68.4,68.0,29.96,NNE,30,2.0,-999.0,100,-99.99,,,0.00,weatherlink.com 1.10,2013-05-20 04:47:00,
2013-05-20 08:02:00,68.9,69.0,29.96,NE,41,3.0,-999.0,100,-99.99,,,0.00,weatherlink.com 1.10,2013-05-20 05:02:00,
2013-05-20 08:17:00,69.8,70.0,29.97,NNE,24,0.0,-999.0,100,-99.99,,,0.00,weatherlink.com 1.10,2013-05-20 05:17:00,
2013-05-20 08:32:00,72.0,72.0,29.97,NE,42,0.0,-999.0,100,-99.99,,,0.00,weatherlink.com 1.10,2013-05-20 05:32:00,
2013-05-20 08:47:00,74.9,75.0,29.97,North,0,0.0,-999.0,100,-99.99,,,0.00,weatherlink.com 1.10,2013-05-20 05:47:00,
2013-05-20 09:02:00,76.5,77.0,29.97,ENE,64,0.0,-999.0,100,-99.99,,,0.00,weatherlink.com 1.10,2013-05-20 06:02:00,
2013-05-20 09:17:00,75.6,76.0,29.97,NNE,25,0.0,-999.0,100,-99.99,,,0.00,weatherlink.com 1.10,2013-05-20 06:17:00,
2013-05-20 09:32:00,75.4,75.0,29.97,NNE,30,0.0,-999.0,100,-99.99,,,0.00,weatherlink.com 1.10,2013-05-20 06:32:00,
2013-05-20 09:47:00,74.6,75.0,29.97,NNE,16,2.0,-999.0,100,-99.99,,,0.00,weatherlink.com 1.10,2013-05-20 06:47:00,
2013-05-20 10:02:00,74.9,75.0,29.97,NNE,30,2.0,-999.0,100,-99.99,,,0.00,weatherlink.com 1.10,2013-05-20 07:02:00,
2013-05-20 10:17:00,74.4,74.0,29.97,ENE,61,2.0,-999.0,100,-99.99,,,0.00,weatherlink.com 1.10,2013-05-20 07:17:00,
2013-05-20 10:32:00,75.3,75.0,29.97,ENE,68,5.0,-999.0,100,-99.99,,,0.00,weatherlink.com 1.10,2013-05-20 07:32:00,
2013-05-20 10:47:00,75.6,76.0,29.97,NE,48,6.0,-999.0,100,-99.99,,,0.00,weatherlink.com 1.10,2013-05-20 07:47:00,
2013-05-20 11:02:00,76.3,76.0,29.97,ENE,61,6.0,-999.0,100,-99.99,,,0.00,weatherlink.com 1.10,2013-05-20 08:02:00,
2013-05-20 11:17:00,76.3,76.0,29.97,NNE,24,9.0,-999.0,100,-99.99,,,0.00,weatherlink.com 1.10,2013-05-20 08:17:00,
2013-05-20 11:32:00,77.4,77.0,29.96,NE,44,6.0,-999.0,100,-99.99,,,0.00,weatherlink.com 1.10,2013-05-20 08:32:00,
2013-05-20 11:47:00,77.6,78.0,29.96,ENE,62,5.0,-999.0,100,-99.99,,,0.00,weatherlink.com 1.10,2013-05-20 08:47:00,
2013-05-20 12:02:00,78.1,78.0,29.97,NNE,27,3.0,-999.0,100,-99.99,,,0.00,weatherlink.com 1.10,2013-05-20 09:02:00,
2013-05-20 12:17:00,78.3,78.0,29.97,ENE,61,8.0,-999.0,100,-99.99,,,0.00,weatherlink.com 1.10,2013-05-20 09:17:00,
2013-05-20 12:32:00,78.6,79.0,29.96,North,10,5.0,-999.0,100,-99.99,,,0.00,weatherlink.com 1.10,2013-05-20 09:32:00,
2013-05-20 12:47:00,79.2,79.0,29.95,ENE,68,8.0,-999.0,100,-99.99,,,0.00,weatherlink.com 1.10,2013-05-20 09:47:00,
2013-05-20 13:02:00,78.3,78.0,29.95,ENE,72,7.0,-999.0,100,-99.99,,,0.00,weatherlink.com 1.10,2013-05-20 10:02:00,
2013-05-20 13:17:00,79.0,79.0,29.95,ENE,68,5.0,-999.0,100,-99.99,,,0.00,weatherlink.com 1.10,2013-05-20 10:17:00,
2013-05-20 13:32:00,79.8,80.0,29.95,North,4,5.0,-999.0,100,-99.99,,,0.00,weatherlink.com 1.10,2013-05-20 10:32:00,
2013-05-20 13:47:00,79.6,80.0,29.94,NNE,14,8.0,-999.0,100,-99.99,,,0.00,weatherlink.com 1.10,2013-05-20 10:47:00,
2013-05-20 14:02:00,79.6,80.0,29.94,NNE,17,11.0,-999.0,100,-99.99,,,0.00,weatherlink.com 1.10,2013-05-20 11:02:00,
2013-05-20 14:17:00,79.6,80.0,29.94,North,357,1.0,-999.0,100,-99.99,,,0.00,weatherlink.com 1.10,2013-05-20 11:17:00,
2013-05-20 14:32:00,79.8,80.0,29.93,NNE,17,8.0,-999.0,100,-99.99,,,0.00,weatherlink.com 1.10,2013-05-20 11:32:00,
2013-05-20 14:47:00,79.4,79.0,29.93,North,7,8.0,-999.0,100,-99.99,,,0.00,weatherlink.com 1.10,2013-05-20 11:47:00,
2013-05-20 15:02:00,78.6,79.0,29.93,North,359,9.0,-999.0,100,-99.99,,,0.00,weatherlink.com 1.10,2013-05-20 12:02:00,
2013-05-20 15:17:00,78.8,79.0,29.93,NNE,16,8.0,-999.0,100,-99.99,,,0.00,weatherlink.com 1.10,2013-05-20 12:17:00,
2013-05-20 15:32:00,78.5,79.0,29.93,North,4,11.0,-999.0,100,-99.99,,,0.00,weatherlink.com 1.10,2013-05-20 12:32:00,
2013-05-20 15:47:00,78.1,78.0,29.93,North,0,7.0,-999.0,100,-99.99,,,0.00,weatherlink.com 1.10,2013-05-20 12:47:00,
2013-05-20 16:02:00,78.5,79.0,29.93,North,4,14.0,-999.0,100,-99.99,,,0.00,weatherlink.com 1.10,2013-05-20 13:02:00,
2013-05-20 20:53:00,72.1,58.0,29.92,ENE,78,5.0,-999.0,62,-99.99,,,0.00,weatherlink.com 1.10,2013-05-20 17:53:00,
2013-05-20 21:02:00,72.0,58.0,29.92,East,80,5.0,-999.0,62,-99.99,,,0.00,weatherlink.com 1.10,2013-05-20 18:02:00,
2013-05-20 21:17:00,71.5,58.0,29.92,East,80,3.0,-999.0,63,-99.99,,,0.00,weatherlink.com 1.10,2013-05-20 18:17:00,
2013-05-20 21:32:00,71.3,58.0,29.92,ENE,69,7.0,-999.0,63,-99.99,,,0.00,weatherlink.com 1.10,2013-05-20 18:32:00,
2013-05-20 21:47:00,71.1,58.0,29.93,East,80,5.0,-999.0,63,-99.99,,,0.00,weatherlink.com 1.10,2013-05-20 18:47:00,
2013-05-20 22:02:00,70.8,57.0,29.92,ENE,73,6.0,-999.0,63,-99.99,,,0.00,weatherlink.com 1.10,2013-05-20 19:02:00,
2013-05-20 22:17:00,70.6,57.0,29.93,ENE,78,2.0,-999.0,62,-99.99,,,0.00,weatherlink.com 1.10,2013-05-20 19:17:00,
2013-05-20 22:32:00,70.3,57.0,29.93,ENE,72,0.0,-999.0,63,-99.99,,,0.00,weatherlink.com 1.10,2013-05-20 19:32:00,
2013-05-20 22:47:00,69.9,57.0,29.93,ENE,76,0.0,-999.0,63,-99.99,,,0.00,weatherlink.com 1.10,2013-05-20 19:47:00,
2013-05-20 23:02:00,69.6,56.0,29.93,ESE,117,1.0,-999.0,63,-99.99,,,0.00,weatherlink.com 1.10,2013-05-20 20:02:00,
2013-05-20 23:17:00,69.3,57.0,29.92,ESE,117,0.0,-999.0,64,-99.99,,,0.00,weatherlink.com 1.10,2013-05-20 20:17:00,
2013-05-20 23:32:00,68.9,57.0,29.93,ESE,102,3.0,-999.0,65,-99.99,,,0.00,weatherlink.com 1.10,2013-05-20 20:32:00,
2013-05-20 23:47:00,68.8,69.0,29.92,SE,134,0.0,-999.0,100,-99.99,,,0.00,weatherlink.com 1.10,2013-05-20 20:47:00,